Location: Althorst
(53.6379°N, 10.7715°E)
Time: 10:19:20
(UTC+00:00)

Cosmos 1908 Rocket - Pass Details

Date: 10 December 2019
Orbit: 605 x 633 km, 82.5° (Epoch: 27 January)

Event Time Altitude Azimuth Distance (km) Brightness Sun altitude
Rises 17:19:35 0° 345° (NNW) 2,919 7.1 -19.7°
Reaches altitude 10° 17:21:51 10° 341° (NNW) 2,003 6.2 -20.0°
Maximum altitude 17:26:11 54° 265° (W) 757 4.3 -20.7°
Drops below altitude 10° 17:30:26 10° 188° (S) 1,970 6.3 -21.3°
Sets 17:32:40 0° 184° (S) 2,866 7.2 -21.6°
